User: anonymous   Login
Location: Unspecified
(0.0000°N, 0.0000°E)
Time: 06:13:33
(UTC+00:00)
Language:

Telecom 1B - Orbit

View from above orbital plane
View from above orbital plane
View from above satellite
View from above satellite

Ground track
Ground track

The orbit data is extracted from the following two-line orbital elements,

1 15678U 85035B   18203.49394421 -.00000057  00000-0  00000+0 0  9990
2 15678  14.2622 345.5206 0002070 298.5650  80.7768  1.00159704108243
Epoch (UTC): 22 July 2018 11:51:16
Eccentricity: 0.0002070
inclination: 14.2622°
perigee height: 35809 km
apogee height: 35826 km
right ascension of ascending node: 345.5206°
argument of perigee: 298.5650°
revolutions per day: 1.00159704
mean anomaly at epoch: 80.7768°
orbit number at epoch: 10824

The dashed part of the orbit path shows where the satellite is in the earth's shadow,  

DLR